{"data":{"norad_id":53176,"intl_designator":"2022-083AW","name":"STARLINK-4294","alt_names":[],"object_type":"PAYLOAD","status":"ACTIVE","operator":null,"country":"US","launch_date":"2022-07-17","launch_site_code":"AFETR","launch_vehicle":null,"mission":null,"orbit_class":"UNKNOWN","rcs_meters":null,"size_class":null,"mass_kg":null,"dimensions":null,"purposes":["comms"],"wikipedia_slug":null,"has_3d_model":false,"image_url":null,"decayed_at":null,"tle_current":{"epoch":"2026-09-19T16:10:08.255424Z","epoch_age_seconds":143642,"freshness":"FRESH","line1":"1 53176U 22083AW  26262.67370666  .00001101  00000+0  47246-4 0  9995","line2":"2 53176  53.1601 346.6549 0001161  85.2379 274.8755 15.31699883231007","mean_motion":15.31699883,"eccentricity":0.0001161,"inclination_deg":53.1601,"raan_deg":346.6549,"arg_perigee_deg":85.2379,"mean_anomaly_deg":274.8755,"bstar":4.7246e-5,"rev_number":23100,"period_min":94.013195142354,"perigee_km":469.94518933694,"apogee_km":471.53549865622,"semimajor_km":6848.8773439966,"source":"CELESTRAK","updated_at":"2026-09-20T09:00:40.186919Z"}}}